Location: Neuvy Saint Sepulchre
(46.5953°N, 1.8122°E)
Time: 12:22:33
(UTC+02:00)

ISS - Pass Details

Date: 25 March 2019
Orbit: 408 x 410 km, 51.6° (Epoch: 24 April)

Event Time Altitude Azimuth Distance (km) Brightness Sun altitude
Rises 21:47:50 0° 277° (W) 2,335 1.0 -25.9°
Reaches altitude 10° 21:50:02 10° 287° (WNW) 1,474 -0.1 -26.2°
Enters shadow 21:51:50 25° 310° (NW) 882 -1.5 -26.5°
